[[{"header":{"parameterUnit":"m.s-1","parameterCategory":2,"la1":30.2991,"la2":30.254,"lo1":-89.0895,"lo2":-89.0444,"dy":0.0017,"dx":0.0017,"nx":28,"ny":28,"refTime":"2024-04-19T03:00:00:Z","depth":"0","parameterNumber":2,"parameterNumberName":"U-component_of_CURRENTS"},"data":[0,0,0,0,0,0,0,0,0,0,0,0,0,0,0,0,0,0,0,0,0,0,0,0,0,0,0,0,0,0,0,0,0,0,0,0,0,0,0,0,0,0,0,0,0,0,0,0,0,0,0,0,0,0,0,0,0,0,0.1595,0.1595,0,0.1613,0.1613,0.1613,0.163,0.163,0.163,0.163,0.168,0.1682,0.1683,0,0,0,0,0,0,0,0,0,0,0,0,0,0.1479,0.1481,0.1595,0.1595,0.1596,0.1613,0.1613,0.1613,0.163,0.163,0.163,0.163,0.168,0.1681,0.1683,0,0,0,0,0,0,0,0,0,0,0,0,0,0.1516,0.1482,0.1595,0.1606,0.1607,0.1613,0.1613,0.1613,0.163,0.163,0.163,0.1631,0.168,0.1681,0.1683,0.1688,0,0,0.1688,0.1689,0,0,0,0,0,0,0,0,0.1514,0.1521,0.1604,0.1605,0.1606,0.1619,0.159,0.164,0.163,0.1621,0.163,0.1631,0.1663,0.1666,0.1668,0.169,0.1692,0.1688,0.1689,0.169,0.1691,0,0,0,0,0,0,0,0.1512,0.152,0.1602,0.1604,0.1606,0.1576,0.1583,0.1599,0.1641,0.1622,0.1623,0.1625,0.1664,0.1666,0.167,0.1693,0.1688,0.169,0.1691,0.1692,0.174,0.174,0,0,0,0,0,0,0.1515,0.1518,0.1602,0.1603,0.156,0.1579,0.1586,0.1615,0.164,0.1644,0.1625,0.1626,0.1663,0.1668,0.1671,0.1686,0.169,0.1692,0.1693,0.174,0.174,0.174,0,0,0,0,0,0,0.1513,0.1523,0.1601,0.1558,0.1566,0.1581,0.1613,0.1615,0.1616,0.1642,0.1646,0.1623,0.1664,0.1669,0.1689,0.1688,0.1693,0.1694,0.1739,0.174,0.174,0.1711,0,0,0,0,0,0,0.151,0.1523,0.1534,0.156,0.1569,0.1604,0.1613,0.1615,0.1617,0.1619,0.1642,0.1647,0.1664,0.1686,0.1691,0.1691,0.1695,0.1739,0.174,0.174,0.1712,0.171,0.1709,0,0,0,0,0,0.1506,0.1524,0.1535,0.1544,0.1589,0.1604,0.1606,0.1615,0.1617,0.1617,0.1636,0.1646,0.1693,0.1688,0.1693,0.1693,0.1739,0.174,0.174,0.1712,0.171,0.1709,0,0,0,0,0,0,0.1475,0.1528,0.1541,0.1574,0.1586,0.1607,0.1605,0.1611,0.1625,0.1627,0.1649,0.1655,0.1678,0.1688,0.1682,0.171,0.1718,0.1719,0.1695,0.1693,0.1692,0.1702,0.1697,0,0,0,0,0,0.1475,0.1505,0.154,0.1561,0.157,0.1585,0.1588,0.1599,0.1616,0.1622,0.1639,0.166,0.1683,0.169,0.1715,0.1722,0.1735,0.1727,0.1726,0.1725,0.1737,0.1746,0.1746,0.1742,0.1742,0.1742,0,0,0.1465,0.1498,0.1513,0.1555,0.1566,0.1582,0.1588,0.1597,0.1609,0.1626,0.1643,0.1661,0.1688,0.1705,0.1714,0.1711,0.1731,0.1725,0.1724,0.1737,0.1746,0.1747,0.1747,0.1743,0.1743,0.1742,0,0,0.1461,0.1494,0.1517,0.1534,0.1556,0.1568,0.1571,0.1594,0.1602,0.1618,0.164,0.1656,0.1681,0.1702,0.1715,0.1721,0.1731,0.1725,0.1717,0.1724,0.1725,0.1725,0.1731,0.1732,0.1714,0.1714,0.1714,0,0.1437,0.149,0.1518,0.1541,0.155,0.1564,0.1578,0.159,0.1614,0.1621,0.1622,0.1664,0.1683,0.1708,0.1713,0.1718,0.1723,0.1716,0.1722,0.1723,0.1724,0.1729,0.1731,0.1713,0.1713,0.1713,0.1714,0,0.1462,0.1492,0.1502,0.1545,0.1554,0.1566,0.159,0.16,0.1605,0.1617,0.1639,0.1662,0.1686,0.169,0.1705,0.1722,0.1723,0.1724,0.1722,0.1722,0.1728,0.173,0.1711,0.1712,0.1712,0.1712,0,0,0.1426,0.1504,0.1504,0.1522,0.1558,0.1565,0.1586,0.1606,0.1617,0.1629,0.1645,0.1673,0.1678,0.1695,0.1709,0.1714,0.172,0.1719,0.172,0.1719,0.1734,0.1813,0.1823,0.1716,0.1717,0.1717,0.1732,0,0.1426,0.1476,0.1512,0.1533,0.1555,0.1576,0.1592,0.1609,0.1624,0.1643,0.1658,0.1682,0.1682,0.1693,0.1697,0.1734,0.1727,0.1716,0.1741,0.1742,0.1808,0.183,0.1879,0.1904,0.1734,0.1734,0.1735,0,0.1434,0.1468,0.1502,0.1539,0.1547,0.1558,0.1579,0.1598,0.1631,0.1643,0.1661,0.1682,0.1711,0.1703,0.1736,0.1729,0.1728,0.174,0.174,0.1832,0.1827,0.1881,0.1915,0.1861,0.1738,0.1738,0.1738,0,0.14,0.1451,0.1478,0.1492,0.154,0.1547,0.1563,0.1593,0.1612,0.165,0.1668,0.1695,0.1721,0.173,0.1769,0.1747,0.1806,0.1775,0.1836,0.184,0.1901,0.1912,0.1888,0.1778,0.1778,0.1778,0.1778,0,0.1392,0.1406,0.1464,0.1479,0.149,0.1525,0.1542,0.1564,0.1605,0.1627,0.1665,0.1697,0.173,0.1772,0.1779,0.1843,0.1811,0.1854,0.186,0.1893,0.1902,0.1874,0.1804,0.1778,0.1778,0.1778,0.1778,0,0.1358,0.1401,0.1428,0.1473,0.1482,0.1487,0.153,0.1546,0.159,0.1624,0.164,0.1708,0.1784,0.1826,0.1865,0.1874,0.189,0.193,0.1976,0.1989,0.2004,0.1931,0.1868,0.1847,0.1997,0.1999,0.2001,0,0.1356,0.1369,0.1413,0.1422,0.1442,0.1464,0.1479,0.1527,0.1552,0.163,0.1646,0.1742,0.1818,0.1938,0.201,0.2071,0.1964,0.2111,0.2085,0.2034,0.1955,0.1846,0.1823,0.2136,0.2139,0.2141,0.2143,0,0.1334,0.1346,0.1366,0.139,0.1404,0.1427,0.1456,0.1477,0.1535,0.1587,0.1666,0.1743,0.1911,0.2036,0.2149,0.2187,0.2062,0.2161,0.209,0.2062,0.1959,0.1933,0.2083,0.2163,0.2161,0.216,0.2159,0.2158,0.1304,0.1309,0.1333,0.1348,0.1361,0.1379,0.1391,0.1441,0.1491,0.1562,0.1652,0.1775,0.1989,0.2198,0.2235,0.2333,0.2205,0.2279,0.2192,0.2085,0.2076,0.2287,0.2391,0.2391,0.239,0.2389,0.2389,0,0.1261,0.1276,0.1291,0.1305,0.1301,0.1329,0.1363,0.1379,0.1432,0.1541,0.1633,0.1868,0.2065,0.223,0.24,0.2348,0.2282,0.2281,0.2116,0.2091,0.2283,0.2305,0.242,0.242,0.242,0.242,0.242,0.242,0.1242,0.1236,0.125,0.1237,0.1248,0.1241,0.1255,0.1295,0.137,0.1495,0.1624,0.1743,0.1976,0.2205,0.2288,0.2281,0.2103,0.2068,0.1973,0.2089,0.208,0.2072,0.2079,0.2145,0.2144,0.1807,0.1804,0.1801]},{"header":{"parameterUnit":"m.s-1","parameterCategory":2,"la1":30.2991,"la2":30.254,"lo1":-89.0895,"lo2":-89.0444,"dy":0.0017,"dx":0.0017,"nx":28,"ny":28,"refTime":"2024-04-19T03:00:00:Z","depth":"0","parameterNumber":3,"parameterNumberName":"V-component_of_CURRENTS"},"data":[0,0,0,0,0,0,0,0,0,0,0,0,0,0,0,0,0,0,0,0,0,0,0,0,0,0,0,0,0,0,0,0,0,0,0,0,0,0,0,0,0,0,0,0,0,0,0,0,0,0,0,0,0,0,0,0,0,0,-0.0056,-0.0056,0,-0.0057,-0.0057,-0.0057,-0.006,-0.006,-0.006,-0.006,-0.0009,-0.0008,-0.0006,0,0,0,0,0,0,0,0,0,0,0,0,0,0.0007,0.0005,-0.0056,-0.0056,-0.0056,-0.0057,-0.0057,-0.0057,-0.006,-0.006,-0.006,-0.006,-0.0009,-0.0008,-0.0006,0,0,0,0,0,0,0,0,0,0,0,0,0,-0.001,0.0005,-0.0056,-0.0058,-0.0058,-0.0057,-0.0057,-0.0057,-0.006,-0.006,-0.006,-0.006,-0.001,-0.0008,-0.0006,0.0011,0,0,0.0001,0.0002,0,0,0,0,0,0,0,0,-0.0009,-0.0012,-0.0057,-0.0058,-0.0058,-0.0059,-0.0016,-0.0032,-0.006,-0.0059,-0.006,-0.006,-0.0021,-0.0018,-0.0018,0.0013,0.0015,0.0001,0.0002,0.0003,0.0004,0,0,0,0,0,0,0,-0.0008,-0.0012,-0.0056,-0.0057,-0.0058,-0.0037,-0.004,-0.0019,-0.0038,-0.0059,-0.0059,-0.006,-0.0021,-0.002,-0.0017,0.0016,0.0001,0.0003,0.0004,0.0005,0.006,0.006,0,0,0,0,0,0,-0.0012,-0.0011,-0.0056,-0.0056,-0.0034,-0.0038,-0.0042,-0.0058,-0.0039,-0.0037,-0.006,-0.006,-0.0024,-0.0019,-0.0015,0.0017,0.0003,0.0005,0.0007,0.006,0.006,0.006,0,0,0,0,0,0,-0.0011,-0.0017,-0.0056,-0.0032,-0.0036,-0.004,-0.0058,-0.0058,-0.0059,-0.004,-0.0037,-0.0061,-0.0024,-0.0018,0.0004,0.0019,0.0006,0.0008,0.006,0.006,0.006,0.0074,0,0,0,0,0,0,-0.0009,-0.0017,-0.0019,-0.0034,-0.0038,-0.0051,-0.0058,-0.0058,-0.0059,-0.006,-0.004,-0.0036,-0.0023,0.0001,0.0007,0.0022,0.001,0.0059,0.006,0.006,0.0074,0.0075,0.0076,0,0,0,0,0,-0.0007,-0.0008,-0.0019,-0.0024,-0.0045,-0.0051,-0.0051,-0.0052,-0.0059,-0.0055,-0.0045,-0.0036,0.0007,0.0003,0.001,0.0026,0.0059,0.006,0.006,0.0073,0.0075,0.0076,0,0,0,0,0,0,0.0034,-0.0009,-0.0021,-0.0032,-0.004,-0.0051,-0.0041,-0.0053,-0.0044,-0.0041,-0.003,-0.0025,-0.0001,0.0007,0.0003,0.004,0.0033,0.0035,0.0041,0.0043,0.0044,0.004,0.0012,0,0,0,0,0,0.0037,0.0015,-0.0011,-0.0016,-0.002,-0.0033,-0.0033,-0.0042,-0.004,-0.0037,-0.0027,-0.0012,0.0006,0.0019,0.0035,0.006,0.0054,0.0072,0.0073,0.0074,0.0074,0.0075,0.0077,0.0061,0.0061,0.0061,0,0,0.0057,0.0028,0.0021,-0.0009,-0.0014,-0.0013,-0.0033,-0.0034,-0.0031,-0.0031,-0.0012,-0.0006,0.0012,0.0037,0.0048,0.0047,0.0074,0.0074,0.0075,0.0075,0.0076,0.0077,0.0079,0.0062,0.0062,0.0061,0,0,0.0086,0.0056,0.005,0.0039,0.002,0.0008,0.0005,-0.0011,-0.0012,-0.0001,-0.0,0.001,0.0039,0.005,0.0062,0.0078,0.0078,0.0085,0.0095,0.0097,0.0098,0.0099,0.0087,0.0087,0.0089,0.0089,0.0089,0,0.012,0.0092,0.0056,0.0051,0.0048,0.0016,0.0023,0.0018,0.0012,0.0015,0.0009,0.0034,0.0046,0.0073,0.0077,0.0083,0.0078,0.009,0.0098,0.0099,0.01,0.0088,0.0088,0.0089,0.0089,0.0089,0.0089,0,0.0138,0.0124,0.0125,0.0097,0.0093,0.0091,0.0072,0.0071,0.0059,0.005,0.0063,0.0067,0.008,0.0086,0.009,0.0105,0.0096,0.0098,0.0095,0.0103,0.0089,0.0088,0.009,0.009,0.009,0.009,0,0,0.019,0.0146,0.0145,0.0139,0.0111,0.0108,0.0116,0.0109,0.0113,0.0103,0.0111,0.0126,0.0109,0.0119,0.0118,0.0119,0.0117,0.0112,0.0112,0.0101,0.011,0.0088,0.0085,0.0122,0.0122,0.0122,0.0095,0,0.0219,0.0208,0.018,0.0188,0.0184,0.016,0.0169,0.016,0.0149,0.0149,0.0138,0.0144,0.0128,0.0131,0.0128,0.0122,0.0117,0.0123,0.0104,0.0103,0.0083,0.0084,0.0101,0.0078,0.0095,0.0095,0.0095,0,0.0242,0.0225,0.0228,0.0214,0.0214,0.0218,0.0215,0.0217,0.0208,0.0201,0.0192,0.0176,0.0171,0.0154,0.0137,0.0142,0.0125,0.0116,0.0115,0.0089,0.008,0.0074,0.0076,-0.0001,0.0094,0.0094,0.0094,0,0.0269,0.026,0.0257,0.0252,0.0237,0.0244,0.024,0.0233,0.0241,0.0226,0.0229,0.0209,0.0203,0.0178,0.0143,0.0143,0.012,0.0119,0.0081,0.0079,0.0086,0.0084,0.0013,0.0107,0.0107,0.0107,0.0107,0,0.0291,0.0292,0.027,0.0266,0.028,0.0264,0.028,0.0274,0.0275,0.0288,0.0252,0.0261,0.021,0.0187,0.0152,0.0109,0.0124,0.0079,0.0072,0.009,0.0089,0.0017,-0.0041,0.0106,0.0107,0.0107,0.0107,0,0.0314,0.0296,0.0294,0.0283,0.0287,0.0293,0.0304,0.0316,0.0311,0.0327,0.0324,0.0303,0.0274,0.0216,0.0176,0.0124,0.0034,0.0066,0.0079,0.0074,-0.0039,-0.0097,-0.0189,-0.023,0.0017,0.0016,0.0016,0,0.0321,0.032,0.0308,0.0311,0.0306,0.0317,0.0331,0.0333,0.0347,0.036,0.0372,0.0348,0.0351,0.0264,0.0168,0.0087,0.0021,0.0034,0.0036,-0.0049,-0.0118,-0.0156,-0.0185,0.005,0.005,0.0049,0.0049,0,0.0337,0.0328,0.0321,0.0328,0.0338,0.0358,0.0375,0.0398,0.0407,0.0434,0.0466,0.0473,0.0384,0.0322,0.0188,0.012,-0.0036,0.0026,-0.0055,-0.01,-0.0151,-0.019,0.0058,0.0047,0.0048,0.0048,0.0048,0.0048,0.0345,0.0347,0.0336,0.0349,0.0364,0.0395,0.0425,0.0457,0.0504,0.0565,0.0559,0.0623,0.0492,0.0323,0.0182,-0.0048,-0.0056,-0.009,-0.0154,-0.0183,-0.0226,0.0003,-0.002,-0.002,-0.0021,-0.0021,-0.0021,0,0.0349,0.0351,0.0363,0.0374,0.04,0.0407,0.0456,0.0502,0.0575,0.0663,0.0719,0.0751,0.056,0.0353,0.0032,-0.0166,-0.0244,-0.0276,-0.0316,-0.0337,-0.0117,-0.0118,-0.0172,-0.0172,-0.0172,-0.0172,-0.0172,-0.0172,0.0344,0.035,0.0363,0.0404,0.0424,0.0475,0.0512,0.0588,0.0673,0.0827,0.0935,0.0997,0.0865,0.0209,-0.022,-0.0335,-0.0481,-0.0522,-0.06,-0.0441,-0.0428,-0.0415,-0.0429,-0.0547,-0.0548,-0.0769,-0.0772,-0.0774]}],[{"header":{"parameterUnit":"m.s-1","parameterCategory":2,"la1":30.2991,"la2":30.254,"lo1":-89.0895,"lo2":-89.0444,"dy":0.0017,"dx":0.0017,"nx":28,"ny":28,"refTime":"2024-04-19T03:00:00:Z","depth":"2","parameterNumber":2,"parameterNumberName":"U-component_of_CURRENTS"},"data":[0,0,0,0,0,0,0,0,0,0,0,0,0,0,0,0,0,0,0,0,0,0,0,0,0,0,0,0,0,0,0,0,0,0,0,0,0,0,0,0,0,0,0,0,0,0,0,0,0,0,0,0,0,0,0,0,0,0,0.0262,0.0263,0,0.0304,0.0304,0.0304,0.0315,0.0315,0.0316,0.0316,0.0332,0.0332,0.0332,0,0,0,0,0,0,0,0,0,0,0,0,0,0.0242,0.0242,0.0262,0.0263,0.0264,0.0303,0.0304,0.0304,0.0315,0.0315,0.0316,0.0316,0.0332,0.0332,0.0332,0,0,0,0,0,0,0,0,0,0,0,0,0,0.0258,0.0242,0.0262,0.0279,0.0281,0.0303,0.0304,0.0304,0.0315,0.0315,0.0316,0.0316,0.0332,0.0332,0.0332,0.0325,0,0,0.0333,0.0333,0,0,0,0,0,0,0,0,0.0257,0.0258,0.0275,0.0278,0.028,0.031,0.0303,0.0311,0.0315,0.0296,0.0316,0.0316,0.0325,0.0326,0.0325,0.0326,0.0327,0.0333,0.0333,0.0333,0.0333,0,0,0,0,0,0,0,0.0256,0.0257,0.0273,0.0276,0.028,0.0302,0.0303,0.0304,0.0303,0.0298,0.03,0.0314,0.0326,0.0325,0.0326,0.0327,0.0333,0.0333,0.0333,0.0333,0.0391,0.0392,0,0,0,0,0,0,0.0259,0.0255,0.0271,0.0274,0.0276,0.0302,0.0304,0.0295,0.0304,0.0307,0.0313,0.0314,0.0324,0.0325,0.0326,0.037,0.0333,0.0333,0.0333,0.0389,0.0391,0.0392,0,0,0,0,0,0,0.0258,0.0259,0.027,0.0272,0.0276,0.0302,0.0292,0.0296,0.0325,0.0317,0.0319,0.0343,0.0325,0.0326,0.0343,0.0369,0.0333,0.0334,0.0388,0.039,0.0392,0.0425,0,0,0,0,0,0,0.0257,0.0258,0.0266,0.0271,0.0276,0.0294,0.0293,0.0296,0.0333,0.0335,0.0342,0.0342,0.0325,0.0343,0.0343,0.0369,0.0334,0.0386,0.0389,0.0391,0.0422,0.0427,0.0432,0,0,0,0,0,0.0256,0.026,0.0265,0.0269,0.028,0.0295,0.0299,0.0316,0.0335,0.0344,0.0351,0.0344,0.036,0.0343,0.0344,0.037,0.0385,0.0388,0.0391,0.0419,0.0426,0.0432,0,0,0,0,0,0,0.0262,0.0263,0.0268,0.0274,0.0291,0.0299,0.0318,0.0336,0.035,0.0359,0.0352,0.0352,0.0377,0.0374,0.0356,0.0397,0.0375,0.0379,0.0397,0.0403,0.0409,0.04,0.0334,0,0,0,0,0,0.0266,0.0269,0.0276,0.0288,0.0294,0.0314,0.033,0.0342,0.0353,0.0362,0.0374,0.0384,0.0386,0.0395,0.0395,0.0416,0.0419,0.0438,0.0443,0.0447,0.0443,0.0476,0.0483,0.0403,0.0403,0.0403,0,0,0.0273,0.0279,0.0281,0.0291,0.0303,0.0308,0.0323,0.0351,0.0362,0.036,0.039,0.0402,0.0396,0.0413,0.0426,0.0416,0.0475,0.0451,0.0455,0.0448,0.048,0.0487,0.0494,0.0405,0.0404,0.0404,0,0,0.0287,0.0291,0.0295,0.0303,0.033,0.0332,0.0348,0.0372,0.0388,0.0417,0.0417,0.0445,0.0464,0.0457,0.0456,0.0495,0.05,0.0513,0.0534,0.0566,0.0573,0.0578,0.0598,0.0605,0.0518,0.0518,0.0518,0,0.0313,0.0299,0.0305,0.0311,0.0321,0.0344,0.0351,0.0363,0.0397,0.0412,0.0433,0.0475,0.0478,0.0485,0.0502,0.0505,0.0526,0.0506,0.0572,0.0578,0.0583,0.0602,0.0609,0.052,0.052,0.052,0.0519,0,0.0308,0.0313,0.032,0.0322,0.0333,0.0347,0.0356,0.0382,0.0418,0.0437,0.048,0.0495,0.0522,0.0536,0.053,0.0572,0.0576,0.0572,0.0552,0.0593,0.061,0.0618,0.0523,0.0522,0.0522,0.0521,0,0,0.0348,0.032,0.0331,0.0327,0.034,0.0346,0.0361,0.0378,0.04,0.045,0.0485,0.0513,0.0549,0.0551,0.0564,0.0595,0.0656,0.0611,0.0611,0.0623,0.0733,0.0747,0.0756,0.0676,0.0677,0.0678,0.0732,0,0.0359,0.0349,0.0337,0.0344,0.0339,0.035,0.036,0.0382,0.0415,0.0454,0.0489,0.0529,0.0545,0.058,0.0613,0.0636,0.0677,0.0642,0.0697,0.0698,0.07,0.0766,0.0682,0.0725,0.0739,0.074,0.0741,0,0.0371,0.0359,0.0352,0.0343,0.0344,0.0358,0.038,0.0393,0.0432,0.0465,0.0513,0.0545,0.0591,0.0614,0.068,0.0664,0.071,0.0733,0.0735,0.0739,0.0726,0.0686,0.0737,0.0753,0.0752,0.0751,0.075,0,0.0388,0.0381,0.0371,0.0368,0.0357,0.0376,0.0387,0.0416,0.0434,0.0489,0.0526,0.057,0.062,0.0669,0.0723,0.0718,0.0797,0.0788,0.0841,0.0841,0.0774,0.0766,0.0857,0.0857,0.0857,0.0857,0.0857,0,0.0397,0.0401,0.0386,0.038,0.0398,0.0395,0.043,0.0446,0.048,0.0515,0.0551,0.06,0.0647,0.0695,0.0733,0.0808,0.0809,0.0857,0.0866,0.0785,0.0778,0.0798,0.0791,0.0859,0.0858,0.0858,0.0857,0,0.0411,0.0402,0.0393,0.0387,0.0406,0.0423,0.046,0.0476,0.0514,0.0564,0.0591,0.064,0.0723,0.0752,0.0828,0.0834,0.0887,0.0918,0.0815,0.0812,0.0906,0.09,0.0983,0.0984,0.0985,0.0986,0.0986,0,0.043,0.0412,0.0403,0.0421,0.043,0.0463,0.0489,0.0509,0.052,0.0599,0.0616,0.0713,0.0797,0.0883,0.092,0.0981,0.0962,0.0902,0.0882,0.0924,0.0924,0.0916,0.0908,0.0801,0.08,0.0799,0.0799,0,0.0436,0.0417,0.039,0.0421,0.0456,0.0471,0.0506,0.0519,0.0552,0.0605,0.0685,0.0769,0.0894,0.0932,0.0991,0.0994,0.0878,0.0894,0.0969,0.0789,0.076,0.0757,0.0754,0.0792,0.0793,0.0793,0.0794,0.0794,0.0459,0.0425,0.0388,0.0415,0.0452,0.0471,0.0489,0.0522,0.0561,0.065,0.0729,0.0838,0.0875,0.0974,0.0964,0.0914,0.0978,0.0876,0.0875,0.0875,0.0852,0.0827,0.0867,0.0868,0.0869,0.087,0.087,0,0.0489,0.0417,0.0401,0.0404,0.0415,0.047,0.0487,0.0495,0.0557,0.0676,0.0791,0.0778,0.0857,0.0874,0.0838,0.0846,0.08,0.0759,0.0684,0.0692,0.0698,0.0662,0.0628,0.0628,0.0627,0.0627,0,0,0.0489,0.0428,0.037,0.0363,0.0405,0.0427,0.0453,0.0495,0.0544,0.0625,0.0698,0.0885,0.0886,0.0784,0.0757,0.0694,0.0682,0.0652,0.0844,0.0766,0.0771,0.0762,0.0716,0,0,0,0,0]},{"header":{"parameterUnit":"m.s-1","parameterCategory":2,"la1":30.2991,"la2":30.254,"lo1":-89.0895,"lo2":-89.0444,"dy":0.0017,"dx":0.0017,"nx":28,"ny":28,"refTime":"2024-04-19T03:00:00:Z","depth":"2","parameterNumber":3,"parameterNumberName":"V-component_of_CURRENTS"},"data":[0,0,0,0,0,0,0,0,0,0,0,0,0,0,0,0,0,0,0,0,0,0,0,0,0,0,0,0,0,0,0,0,0,0,0,0,0,0,0,0,0,0,0,0,0,0,0,0,0,0,0,0,0,0,0,0,0,0,-0.0263,-0.0263,0,-0.0272,-0.0272,-0.0271,-0.0281,-0.0282,-0.0283,-0.0284,-0.0259,-0.0258,-0.0256,0,0,0,0,0,0,0,0,0,0,0,0,0,-0.0286,-0.0285,-0.0263,-0.0263,-0.0264,-0.0272,-0.0272,-0.0271,-0.0281,-0.0282,-0.0283,-0.0284,-0.0259,-0.0258,-0.0256,0,0,0,0,0,0,0,0,0,0,0,0,0,-0.0277,-0.0284,-0.0263,-0.0275,-0.0277,-0.0272,-0.0271,-0.0271,-0.0281,-0.0282,-0.0283,-0.0284,-0.026,-0.0258,-0.0256,-0.0219,0,0,-0.0249,-0.0248,0,0,0,0,0,0,0,0,-0.0277,-0.0275,-0.0273,-0.0275,-0.0277,-0.0283,-0.0271,-0.0254,-0.0281,-0.0272,-0.0284,-0.0285,-0.0267,-0.0265,-0.0254,-0.0218,-0.0217,-0.0249,-0.0248,-0.0247,-0.0246,0,0,0,0,0,0,0,-0.0278,-0.0275,-0.0259,-0.0274,-0.0276,-0.0293,-0.0291,-0.0268,-0.0257,-0.0273,-0.0275,-0.0287,-0.0267,-0.0256,-0.0254,-0.0216,-0.0249,-0.0247,-0.0246,-0.0245,-0.0201,-0.0201,0,0,0,0,0,0,-0.0288,-0.0275,-0.0259,-0.026,-0.0288,-0.0291,-0.029,-0.0274,-0.0258,-0.0259,-0.0286,-0.0288,-0.0259,-0.0256,-0.0253,-0.0246,-0.0247,-0.0245,-0.0244,-0.0201,-0.0201,-0.0201,0,0,0,0,0,0,-0.0287,-0.0285,-0.0259,-0.0276,-0.0274,-0.029,-0.0272,-0.0274,-0.0289,-0.027,-0.0269,-0.0304,-0.026,-0.0256,-0.0242,-0.0244,-0.0244,-0.0242,-0.0201,-0.0201,-0.0201,-0.0209,0,0,0,0,0,0,-0.0287,-0.0284,-0.028,-0.0275,-0.0274,-0.0267,-0.0272,-0.0273,-0.0296,-0.0298,-0.0284,-0.0281,-0.0261,-0.0245,-0.024,-0.0241,-0.0241,-0.0201,-0.0201,-0.0201,-0.0208,-0.0209,-0.021,0,0,0,0,0,-0.0288,-0.0273,-0.0278,-0.0278,-0.0265,-0.0268,-0.0268,-0.028,-0.0296,-0.0298,-0.0286,-0.0283,-0.0243,-0.0243,-0.0237,-0.0238,-0.0201,-0.0201,-0.0201,-0.0208,-0.0209,-0.021,0,0,0,0,0,0,-0.0283,-0.0274,-0.0279,-0.0263,-0.0275,-0.0273,-0.0277,-0.0293,-0.0285,-0.0289,-0.0275,-0.027,-0.0261,-0.0249,-0.0249,-0.0227,-0.0225,-0.0224,-0.0232,-0.0233,-0.0233,-0.0228,-0.0239,0,0,0,0,0,-0.0281,-0.0271,-0.0271,-0.0267,-0.0265,-0.0276,-0.0284,-0.0294,-0.029,-0.029,-0.0286,-0.0273,-0.0251,-0.0244,-0.0225,-0.0206,-0.0195,-0.0207,-0.0208,-0.0208,-0.02,-0.0178,-0.0176,-0.0202,-0.0202,-0.0202,0,0,-0.0279,-0.0279,-0.0272,-0.0268,-0.027,-0.0261,-0.0281,-0.0293,-0.0292,-0.0285,-0.0281,-0.0276,-0.0248,-0.0227,-0.0223,-0.022,-0.0199,-0.0209,-0.0209,-0.0201,-0.0178,-0.0176,-0.0173,-0.0202,-0.0202,-0.0202,0,0,-0.0275,-0.0267,-0.0255,-0.0255,-0.0269,-0.0269,-0.028,-0.0288,-0.0294,-0.029,-0.0284,-0.028,-0.0258,-0.0233,-0.0217,-0.021,-0.0205,-0.0218,-0.0211,-0.0191,-0.0188,-0.0186,-0.0183,-0.018,-0.0216,-0.0216,-0.0216,0,-0.0279,-0.0256,-0.0258,-0.0247,-0.0247,-0.0274,-0.0262,-0.0263,-0.0275,-0.0273,-0.0293,-0.0264,-0.0253,-0.0212,-0.0214,-0.021,-0.0206,-0.021,-0.0191,-0.0188,-0.0185,-0.0182,-0.0179,-0.0217,-0.0217,-0.0217,-0.0216,0,-0.0259,-0.0245,-0.0238,-0.0225,-0.0225,-0.0224,-0.0225,-0.0234,-0.0256,-0.0261,-0.0254,-0.0241,-0.0225,-0.0227,-0.0216,-0.0194,-0.0201,-0.0196,-0.0187,-0.0183,-0.0181,-0.0177,-0.0217,-0.0217,-0.0217,-0.0217,0,0,-0.025,-0.0227,-0.0228,-0.0214,-0.0213,-0.0209,-0.0201,-0.0196,-0.0192,-0.0214,-0.0204,-0.0188,-0.0206,-0.0188,-0.0186,-0.0173,-0.0163,-0.0182,-0.0181,-0.0178,-0.0133,-0.0179,-0.0179,-0.0158,-0.0157,-0.0156,-0.0145,0,-0.0236,-0.0215,-0.0206,-0.0182,-0.0161,-0.0168,-0.0155,-0.0158,-0.0168,-0.0166,-0.0168,-0.016,-0.0182,-0.0183,-0.0173,-0.0162,-0.0152,-0.0168,-0.0139,-0.0138,-0.0177,-0.0176,-0.0152,-0.0143,-0.0141,-0.014,-0.014,0,-0.0215,-0.0201,-0.0181,-0.0148,-0.0139,-0.0135,-0.012,-0.0113,-0.0109,-0.0116,-0.0119,-0.0128,-0.0118,-0.014,-0.0121,-0.0134,-0.0135,-0.0131,-0.013,-0.0164,-0.0177,-0.0144,-0.0137,-0.0134,-0.0134,-0.0135,-0.0135,0,-0.0212,-0.0178,-0.0167,-0.0157,-0.0129,-0.0123,-0.0116,-0.0108,-0.0094,-0.0095,-0.009,-0.0087,-0.0088,-0.0085,-0.0107,-0.0109,-0.0092,-0.0086,-0.0125,-0.0129,-0.0097,-0.01,-0.0064,-0.0064,-0.0064,-0.0064,-0.0064,0,-0.0199,-0.018,-0.0168,-0.0158,-0.0133,-0.0119,-0.0099,-0.0093,-0.0076,-0.0052,-0.0073,-0.0053,-0.0076,-0.0078,-0.0091,-0.0112,-0.008,-0.0123,-0.0125,-0.0103,-0.0107,-0.0085,-0.0088,-0.0064,-0.0064,-0.0064,-0.0064,0,-0.0198,-0.0192,-0.0164,-0.0141,-0.0133,-0.0121,-0.009,-0.007,-0.0063,-0.0031,-0.0032,-0.0029,-0.0042,-0.0072,-0.007,-0.0095,-0.0104,-0.0117,-0.0109,-0.0111,-0.0156,-0.0159,-0.0144,-0.0145,-0.0146,-0.0147,-0.0148,0,-0.0193,-0.0189,-0.0164,-0.0146,-0.0139,-0.0117,-0.0097,-0.0077,-0.005,-0.0009,0.0013,0.0,0.0018,-0.0022,-0.0085,-0.0125,-0.0129,-0.0142,-0.0138,-0.0158,-0.0162,-0.0163,-0.0165,-0.0099,-0.0099,-0.0099,-0.0099,0,-0.0181,-0.0188,-0.0165,-0.0139,-0.0119,-0.0084,-0.0055,-0.0023,0.001,0.0053,0.0112,0.0133,0.0067,0.0026,-0.0079,-0.0102,-0.0139,-0.0152,-0.015,-0.0098,-0.0119,-0.0122,-0.0124,-0.0102,-0.0102,-0.0102,-0.0102,-0.0101,-0.0175,-0.0155,-0.014,-0.0114,-0.0085,-0.0043,-0.0001,0.0053,0.0121,0.0227,0.0221,0.0274,0.0168,0.0063,-0.0044,-0.0173,-0.0158,-0.017,-0.0166,-0.0163,-0.0176,-0.02,-0.0201,-0.0201,-0.0201,-0.0202,-0.0202,0,-0.0149,-0.0139,-0.0109,-0.0061,-0.0024,-0.0027,0.0042,0.0114,0.0221,0.0318,0.0406,0.0338,0.0269,0.0119,-0.0074,-0.0178,-0.0162,-0.0209,-0.016,-0.0156,-0.0153,-0.0165,-0.0187,-0.0187,-0.0188,-0.0188,0,0,-0.0133,-0.011,-0.0092,-0.0019,0.0013,0.0076,0.0121,0.0239,0.0331,0.0461,0.0501,0.0567,0.034,0.0215,0.0052,-0.0075,-0.0078,-0.0087,-0.0083,-0.0,0.0004,-0.0115,-0.0127,0,0,0,0,0]}],[{"header":{"parameterUnit":"m.s-1","parameterCategory":2,"la1":30.2991,"la2":30.254,"lo1":-89.0895,"lo2":-89.0444,"dy":0.0017,"dx":0.0017,"nx":28,"ny":28,"refTime":"2024-04-19T03:00:00:Z","depth":"4","parameterNumber":2,"parameterNumberName":"U-component_of_CURRENTS"},"data":[0,0,0,0,0,0,0,0,0,0,0,0,0,0,0,0,0,0,0,0,0,0,0,0,0,0,0,0,0,0,0,0,0,0,0,0,0,0,0,0,0,0,0,0,0,0,0,0,0,0,0,0,0,0,0,0,0,0,0.0191,0.019,0,0.0158,0.0157,0.0157,0.0132,0.0132,0.0132,0.0132,0.0076,0.0075,0.0073,0,0,0,0,0,0,0,0,0,0,0,0,0,0.0191,0.0191,0.0191,0.019,0.019,0.0158,0.0157,0.0156,0.0133,0.0132,0.0132,0.0132,0.0077,0.0075,0.0073,0,0,0,0,0,0,0,0,0,0,0,0,0,0.0176,0.0191,0.0191,0.0176,0.0174,0.0158,0.0157,0.0156,0.0133,0.0132,0.0132,0.0132,0.0077,0.0075,0.0073,0.006,0,0,0.0066,0.0065,0,0,0,0,0,0,0,0,0.0177,0.0176,0.0178,0.0177,0.0175,0.0151,0.0137,0.0124,0.0133,0.0146,0.0132,0.0132,0.0101,0.0096,0.0088,0.0057,0.0055,0.0066,0.0065,0.0064,0.0063,0,0,0,0,0,0,0,0.0178,0.0177,0.0175,0.0178,0.0176,0.0157,0.0155,0.0134,0.0122,0.0145,0.0144,0.0143,0.0099,0.009,0.0086,0.0054,0.0066,0.0064,0.0063,0.0062,-0.0013,-0.0014,0,0,0,0,0,0,0.0189,0.0178,0.0177,0.0175,0.0178,0.0157,0.0155,0.0157,0.0122,0.0118,0.0143,0.0142,0.0094,0.0089,0.0084,0.0037,0.0064,0.0062,0.006,-0.0013,-0.0014,-0.0014,0,0,0,0,0,0,0.0189,0.0189,0.0178,0.0177,0.0174,0.0158,0.016,0.0156,0.0143,0.0122,0.0117,0.0134,0.0093,0.0087,0.0062,0.0036,0.0061,0.0059,-0.0012,-0.0013,-0.0014,-0.0038,0,0,0,0,0,0,0.0189,0.0189,0.0189,0.0178,0.0175,0.0167,0.016,0.0156,0.0144,0.0142,0.0112,0.0107,0.0093,0.0066,0.006,0.0033,0.0057,-0.0011,-0.0012,-0.0014,-0.0037,-0.004,-0.0043,0,0,0,0,0,0.0189,0.019,0.0189,0.0189,0.0177,0.0167,0.0163,0.0149,0.0144,0.0137,0.0117,0.0108,0.0054,0.0064,0.0057,0.0029,-0.001,-0.0012,-0.0013,-0.0035,-0.0039,-0.0043,0,0,0,0,0,0,0.0187,0.0187,0.0186,0.0187,0.0178,0.0163,0.0157,0.0148,0.0126,0.0123,0.0102,0.0095,0.0063,0.0053,0.0065,0.0005,0.0019,0.0016,0.0004,0.0,-0.0003,0.0022,0.0055,0,0,0,0,0,0.0188,0.019,0.0186,0.0184,0.0183,0.0169,0.0161,0.0153,0.0136,0.0127,0.0104,0.0079,0.0052,0.0034,0.0014,-0.0019,-0.0,-0.0041,-0.0045,-0.0047,-0.0031,-0.0036,-0.0038,-0.0019,-0.0019,-0.0019,0,0,0.0187,0.0187,0.0188,0.0184,0.0176,0.0169,0.0163,0.0154,0.0137,0.0124,0.009,0.007,0.0044,0.0007,-0.0009,-0.0007,-0.004,-0.0049,-0.0051,-0.0033,-0.0038,-0.0039,-0.0041,-0.002,-0.002,-0.002,0,0,0.0185,0.0186,0.0188,0.0181,0.0174,0.0166,0.0164,0.0146,0.0129,0.0102,0.0083,0.0052,0.0013,-0.0016,-0.0035,-0.0065,-0.0051,-0.0078,-0.0083,-0.009,-0.0091,-0.0092,-0.0057,-0.0054,-0.0087,-0.0087,-0.0087,0,0.0184,0.0185,0.0184,0.0181,0.0174,0.0165,0.0159,0.0139,0.0112,0.0091,0.0091,0.0026,0.0001,-0.0048,-0.0058,-0.0074,-0.0054,-0.007,-0.0093,-0.0093,-0.0094,-0.0058,-0.0055,-0.0088,-0.0088,-0.0088,-0.0088,0,0.0185,0.018,0.018,0.0175,0.0165,0.0158,0.014,0.0119,0.0099,0.0076,0.0031,0.0,-0.0034,-0.006,-0.0067,-0.0097,-0.0073,-0.0091,-0.0081,-0.0097,-0.0058,-0.0055,-0.009,-0.009,-0.0089,-0.0089,0,0,0.0201,0.0184,0.0186,0.0177,0.0162,0.0155,0.0125,0.0096,0.0072,0.0039,0.0008,-0.0044,-0.0053,-0.0071,-0.0096,-0.0107,-0.0096,-0.0096,-0.0096,-0.0055,-0.0072,-0.0061,-0.0056,-0.0118,-0.0118,-0.0118,-0.0038,0,0.0204,0.0199,0.0185,0.017,0.0165,0.0141,0.0113,0.0081,0.0052,0.0019,-0.002,-0.0052,-0.0061,-0.0077,-0.009,-0.0095,-0.0089,-0.0113,-0.0066,-0.0063,-0.0049,-0.0053,-0.0118,-0.0035,-0.0034,-0.0034,-0.0033,0,0.0216,0.0207,0.0199,0.0166,0.0161,0.0145,0.0105,0.0077,0.0026,0.0004,-0.003,-0.0048,-0.007,-0.0074,-0.007,-0.0081,-0.0065,-0.0066,-0.0064,-0.0039,-0.0047,-0.002,-0.0026,-0.0027,-0.0027,-0.0028,-0.0028,0,0.0242,0.0217,0.0212,0.0203,0.0166,0.0145,0.0119,0.0069,0.0045,0.0,-0.0006,-0.0041,-0.0038,-0.0043,-0.0023,-0.0045,0.0002,-0.0038,-0.0007,-0.0005,-0.0026,-0.0026,-0.0021,-0.0021,-0.0022,-0.0022,-0.0022,0,0.0253,0.0249,0.0221,0.0218,0.0195,0.0159,0.0126,0.0093,0.0051,0.0046,-0.0003,0.0009,-0.0027,-0.0005,-0.0004,0.0026,0.0022,0.001,0.0011,-0.0036,-0.0039,-0.0022,-0.0023,-0.0019,-0.0019,-0.002,-0.0021,0,0.0279,0.0267,0.0261,0.0224,0.021,0.0193,0.0142,0.0122,0.0082,0.0082,0.0079,0.006,0.0087,0.007,0.0081,0.0065,0.0075,0.0091,0.0087,0.0085,0.0071,0.0067,0.0116,0.0117,0.0118,0.0118,0.0119,0,0.0282,0.0289,0.0276,0.0273,0.0254,0.0219,0.0199,0.0145,0.0137,0.0134,0.0153,0.0164,0.0161,0.019,0.0159,0.0157,0.0144,0.0154,0.0066,0.0086,0.0082,0.0078,0.0073,0.012,0.012,0.0121,0.0121,0,0.0288,0.0303,0.03,0.0301,0.0287,0.0266,0.024,0.023,0.02,0.0189,0.0223,0.0213,0.0244,0.022,0.0224,0.0216,0.0135,0.0161,0.0158,0.0075,0.0091,0.0086,0.0081,0.0123,0.0123,0.0123,0.0123,0,0.0292,0.03,0.0312,0.0306,0.0314,0.0305,0.0278,0.0273,0.0254,0.0252,0.0288,0.0285,0.029,0.0258,0.0269,0.0249,0.0215,0.0181,0.0176,0.0173,0.0142,0.0168,0.0239,0,0,0,0,0,0.0278,0.0291,0.0305,0.0297,0.0321,0.0315,0.0308,0.0283,0.0274,0.0309,0.0285,0.0316,0.0299,0.0289,0.0271,0.0258,0.0201,0.0233,0.0157,0.0138,0.0135,0.0087,0,0,0,0,0,0,0.0266,0.0288,0.0299,0.0304,0.0304,0.0308,0.0305,0.0296,0.0301,0.0305,0.0299,0.0305,0.0288,0.0318,0.0272,0.0266,0.0211,0.023,0.0229,0.014,0.0137,0.0135,0.0084,0,0,0,0,0]},{"header":{"parameterUnit":"m.s-1","parameterCategory":2,"la1":30.2991,"la2":30.254,"lo1":-89.0895,"lo2":-89.0444,"dy":0.0017,"dx":0.0017,"nx":28,"ny":28,"refTime":"2024-04-19T03:00:00:Z","depth":"4","parameterNumber":3,"parameterNumberName":"V-component_of_CURRENTS"},"data":[0,0,0,0,0,0,0,0,0,0,0,0,0,0,0,0,0,0,0,0,0,0,0,0,0,0,0,0,0,0,0,0,0,0,0,0,0,0,0,0,0,0,0,0,0,0,0,0,0,0,0,0,0,0,0,0,0,0,0.0197,0.0197,0,0.0184,0.0184,0.0183,0.0217,0.0218,0.022,0.0221,0.0207,0.0205,0.0204,0,0,0,0,0,0,0,0,0,0,0,0,0,0.0204,0.0204,0.0197,0.0197,0.0197,0.0184,0.0184,0.0183,0.0217,0.0218,0.022,0.0221,0.0207,0.0205,0.0204,0,0,0,0,0,0,0,0,0,0,0,0,0,0.0196,0.0204,0.0197,0.0213,0.0214,0.0184,0.0184,0.0183,0.0217,0.0218,0.022,0.0222,0.0208,0.0206,0.0203,0.0155,0,0,0.0197,0.0196,0,0,0,0,0,0,0,0,0.0197,0.0196,0.0211,0.0212,0.0213,0.0205,0.0181,0.0174,0.0216,0.0215,0.0221,0.0223,0.0205,0.0203,0.0196,0.0155,0.0154,0.0197,0.0195,0.0194,0.0194,0,0,0,0,0,0,0,0.0197,0.0196,0.0191,0.0211,0.0212,0.0205,0.0206,0.018,0.02,0.0215,0.0218,0.0217,0.0206,0.0198,0.0196,0.0154,0.0197,0.0195,0.0193,0.0193,0.0137,0.0136,0,0,0,0,0,0,0.0201,0.0197,0.0191,0.0191,0.021,0.0203,0.0204,0.0205,0.02,0.0201,0.0216,0.0219,0.0201,0.0198,0.0195,0.0199,0.0194,0.0192,0.0191,0.0137,0.0137,0.0136,0,0,0,0,0,0,0.0202,0.0201,0.0192,0.0194,0.0193,0.0202,0.0202,0.0204,0.0224,0.0201,0.0202,0.0238,0.0202,0.0198,0.0186,0.0197,0.0191,0.0189,0.0137,0.0137,0.0136,0.0167,0,0,0,0,0,0,0.0202,0.0201,0.0209,0.0195,0.0193,0.0181,0.02,0.0202,0.022,0.0225,0.0219,0.0218,0.0203,0.0189,0.0183,0.0194,0.0188,0.0137,0.0137,0.0137,0.0166,0.0168,0.0169,0,0,0,0,0,0.0202,0.02,0.021,0.0209,0.0202,0.0181,0.0179,0.019,0.022,0.0218,0.0219,0.022,0.0183,0.0186,0.018,0.019,0.0137,0.0137,0.0137,0.0166,0.0168,0.0169,0,0,0,0,0,0,0.0206,0.0202,0.0213,0.0211,0.0203,0.0188,0.0189,0.0203,0.0203,0.0218,0.0209,0.0206,0.02,0.0185,0.0189,0.0172,0.0164,0.0162,0.0188,0.019,0.0191,0.0182,0.0186,0,0,0,0,0,0.021,0.021,0.0203,0.0201,0.0201,0.0203,0.0202,0.021,0.0204,0.0209,0.0207,0.0201,0.0186,0.0183,0.0163,0.0147,0.0142,0.0152,0.0153,0.0155,0.0142,0.0144,0.0145,0.0135,0.0135,0.0135,0,0,0.0212,0.0209,0.0211,0.0203,0.0201,0.0183,0.0207,0.0208,0.02,0.0204,0.0202,0.0204,0.0182,0.0168,0.0165,0.0163,0.0157,0.0154,0.0156,0.0142,0.0144,0.0145,0.0146,0.0135,0.0135,0.0135,0,0,0.0198,0.0214,0.0205,0.0195,0.0193,0.0187,0.0195,0.0194,0.0205,0.0196,0.0202,0.0207,0.0187,0.0172,0.0162,0.0155,0.0164,0.0165,0.0167,0.017,0.0171,0.0171,0.0181,0.0183,0.0168,0.0169,0.0169,0,0.0201,0.0188,0.0198,0.0179,0.017,0.0192,0.0173,0.0174,0.0172,0.0174,0.02,0.0187,0.0181,0.0157,0.0166,0.0158,0.0169,0.0166,0.0173,0.0173,0.0174,0.0183,0.0184,0.017,0.017,0.017,0.0169,0,0.017,0.0164,0.0156,0.0141,0.0132,0.0121,0.012,0.0126,0.0155,0.0158,0.0164,0.0164,0.0161,0.0168,0.0167,0.0167,0.0179,0.0176,0.0172,0.0177,0.0186,0.0187,0.0172,0.0171,0.0171,0.0171,0,0,0.0168,0.014,0.014,0.0124,0.0114,0.0099,0.009,0.008,0.0083,0.0107,0.0109,0.0111,0.0145,0.0135,0.0149,0.0157,0.0184,0.0179,0.0179,0.0195,0.0207,0.0168,0.0165,0.0197,0.0197,0.0197,0.0219,0,0.0143,0.0101,0.0095,0.0058,0.0038,0.0045,0.003,0.0029,0.0048,0.0055,0.0082,0.0093,0.0123,0.0147,0.0157,0.0174,0.0185,0.0179,0.0193,0.0193,0.0163,0.0163,0.0197,0.022,0.022,0.022,0.022,0,0.0119,0.0092,0.0054,0.0017,0.0011,-0.0003,-0.0013,-0.0022,-0.001,0.0012,0.004,0.0068,0.0093,0.0123,0.0154,0.0159,0.0185,0.0198,0.0199,0.0146,0.0153,0.0209,0.0221,0.0221,0.0221,0.0221,0.0221,0,0.0112,0.0065,0.0036,0.0021,-0.0016,-0.002,-0.0025,-0.0024,-0.0031,0.0005,0.0017,0.0049,0.0081,0.0112,0.0159,0.0169,0.0188,0.0199,0.0181,0.0179,0.0196,0.0195,0.021,0.021,0.021,0.021,0.021,0,0.0087,0.0064,0.0035,0.0017,-0.0014,-0.0024,-0.0041,-0.0035,-0.0032,-0.0034,0.0013,0.0014,0.0085,0.0108,0.0148,0.0164,0.0182,0.0172,0.0175,0.0211,0.0211,0.0198,0.0196,0.0211,0.021,0.021,0.021,0,0.0086,0.0065,0.0028,-0.0006,-0.0015,-0.0026,-0.005,-0.0062,-0.0044,-0.0043,-0.0023,-0.0001,0.0025,0.0071,0.0116,0.0143,0.0165,0.0165,0.0201,0.0208,0.016,0.016,0.0146,0.0145,0.0143,0.0142,0.0142,0,0.0075,0.0058,0.0022,0.0005,-0.0005,-0.0027,-0.0042,-0.0051,-0.0058,-0.0061,-0.006,-0.0044,-0.0022,0.0018,0.0052,0.0106,0.0112,0.0148,0.0149,0.0145,0.0151,0.0152,0.0153,0.014,0.014,0.0139,0.0139,0,0.0053,0.0055,0.0029,0.0009,-0.0009,-0.0045,-0.0057,-0.0066,-0.0068,-0.0078,-0.0067,-0.0047,-0.0043,-0.0007,0.0035,0.007,0.0139,0.0136,0.0139,0.014,0.0138,0.0144,0.0147,0.0135,0.0136,0.0136,0.0136,0,0.0049,0.0036,0.0025,0.0008,-0.0016,-0.0028,-0.0049,-0.0057,-0.0069,-0.0061,-0.0073,-0.0059,-0.0053,-0.0031,-0.0003,0.0033,0.004,0.0088,0.0094,0.0098,0.007,0.0059,0.0027,0,0,0,0,0,0.0036,0.0035,0.002,0.0008,-0.0008,-0.0015,-0.0047,-0.0064,-0.0078,-0.0061,-0.0058,-0.0051,-0.0027,-0.0039,-0.0011,-0.0042,0.0037,-0.0008,0.0095,0.0113,0.0117,0.0087,0,0,0,0,0,0,0.0027,0.0021,0.0025,0.0024,0.0023,0.0005,-0.0009,-0.0024,-0.0017,-0.0028,-0.0025,-0.0028,-0.0021,-0.0032,-0.0002,-0.0002,0.0072,-0.001,-0.0009,0.011,0.0114,0.0118,0.0088,0,0,0,0,0]}]]